Location: Eekwerd
(53.3234°N, 6.7984°E)
Time: 08:36:48
(UTC+00:00)

Cosmos 44 - Pass Details

Date: 15 May 2026
Orbit: 568 x 782 km, 65.1° (Epoch: 5 June)

Event Time Altitude Azimuth Distance (km) Brightness Sun altitude
Rises 20:50:03 0° 315° (NW) 3,276 8.9 -9.9°
Reaches altitude 10° 20:52:31 10° 319° (NW) 2,348 7.7 -10.2°
Maximum altitude 20:57:54 63° 40° (NE) 869 3.9 -10.6°
Enters shadow 21:02:45 12° 121° (ESE) 2,137 5.2 -11.1°
